Location: Huntsville
(41.2590°N, 111.7678°W)
Time: 14:23:10
(UTC+00:00)

Courier 1B Rocket - Pass Details

Date: 20 June 2021
Orbit: 920 x 1202 km, 28.2° (Epoch: 24 July)

Event Time Altitude Azimuth Distance (km) Brightness Sun altitude
Rises 03:29:32 0° 242° (WSW) 3,763 8.4 -4.9°
Reaches altitude 10° 03:32:46 10° 229° (SW) 2,763 7.5 -5.3°
Maximum altitude 03:38:02 25° 177° (S) 1,831 6.1 -6.1°
Drops below altitude 10° 03:43:04 10° 124° (SE) 2,641 6.6 -6.9°
Enters shadow 03:43:42 - 121° (ESE) 2,822 6.8 -7.0°
Sets 03:46:05 0° 111° (ESE) 3,563 - -7.3°
